Location: Newark
(43.5831°N, 21.3381°E)
Time: 11:03:07
(UTC+00:00)

Envisat - Pass Details

Date: 16 December 2019
Orbit: 764 x 766 km, 98.1° (Epoch: 18 January)

Event Time Altitude Azimuth Distance (km) Brightness Sun altitude
Rises 15:33:18 0° 137° (SE) 3,222 6.1 -6.3°
Reaches altitude 10° 15:35:49 10° 127° (SE) 2,300 5.2 -6.7°
Maximum altitude 15:40:13 31° 67° (ENE) 1,330 3.7 -7.4°
Drops below altitude 10° 15:44:38 10° 6° (N) 2,313 5.2 -8.1°
Sets 15:47:10 0° 357° (N) 3,244 6.0 -8.6°
